LiveATC.Net - Listen to live air traffic control over the Internet!


ICAO: KSFF  IATA: SFF   Airport: Felts Field Airport
City: Spokane   State/Province: Washington
Country: United States   Continent: North America
KSFF METAR Weather: KSFF 210053Z 00000KT 10SM SCT070 BKN090 18/01 A2986 RMK AO2 SLP107 T01780006
KSFF Flight Activity (FlightAware)
KSFF Airport Info   (iFlightPlanner)
KSFF VFR Sectional Chart   (iFlightPlanner) 
KSFF IFR Low Chart   (iFlightPlanner) 

KSFF Ground/Tower
Feed Status: UP   Listeners: 0
Listen in your browser - HTML5 player (in browser, HTML5)
Click here to listen with your own player (launches your MP3 player)
KSFF Ground/Tower Audio Archives
FacilityFrequency
Felts Ground121.700
Felts Tower132.500

NOTICE

Unauthorized use prohibited. See LiveATC.net Terms of Service


Find LiveATC Audio Streams


Airport/ARTCC Code

Frequency Search
(e.g., 124.400, 128.75)
Site-wide search
 


Browse LiveATC Feeds
Top 50 LiveATC Feeds
LiveATC Feed Map
Bad Weather Areas

LiveATC FAQ
Offer LiveATC feed
Contact LiveATC.net
Press Inquiries

LiveATC on iPhone
LiveATC on Android

Windows Phone
Windows 8/10

LiveATC Mobile
(Mobile browser)

ATC Audio Archives
Interesting Recordings

LiveATC Forums


Home Page
About LiveATC.net
Make a Donation
Terms of Use
Privacy Policy

Canadian Air Freqs

AIRMETs/SIGMETs

FAA Airport Status
Nat'l Airspace Status
Arrival Demand Charts


Server Software By:
Icecast.org
Liquidsoap